User: anonymous   Login
Location: Brede
(50.9167°N, 0.6000°E)
Time: 13:19:33
(UTC+00:00)
Language:

Helios 1B rocket - Orbit

View from above orbital plane
View from above orbital plane
View from above satellite
View from above satellite

Ground track
Ground track

The orbit data is extracted from the following two-line orbital elements,

1 25979U 99064C   20294.85325899 +.00000340 +00000-0 +35915-4 0  9990
2 25979 098.1449 217.9417 0005284 232.8458 127.2279 14.96066025132792
Epoch (UTC): 20 October 2020 20:28:41
Eccentricity: 0.0005284
inclination: 98.1449°
perigee height: 575 km
apogee height: 583 km
right ascension of ascending node: 217.9417°
argument of perigee: 232.8458°
revolutions per day: 14.96066025
mean anomaly at epoch: 127.2279°
orbit number at epoch: 13279

The dashed part of the orbit path shows where the satellite is in the earth's shadow,  

DLR